Regional Weather Roundup
Issued by NWS

Home | Current Version | Previous Version | Graphics & Text | Print | Product List | Glossary On
Versions: 1 2 3 4 5 6 7 8 9 10 11 12 13 14 15 16 17 18 19 20 21 22 23 24 25 26 27 28 29 30 31 32 33 34 35 36 37 38 39 40 41 42 43 44 45 46 47 48 49 50
000
ASUS44 KMEG 200910
RWRTN
TENNESSEE HOURLY STATE WEATHER ROUNDUP
NATIONAL WEATHER SERVICE MEMPHIS TN
400 AM CDT FRI APR 20 2018

TNZ002-004-019-021-049-052-054-088>092-201000-
WEST TENNESSEE

CITY           SKY/WX    TMP DP  RH WIND       PRES   REMARKS
MEMPHIS INTL   FAIR      41  34  76 N6        30.37R
NWS MEMPHIS      N/A     37 N/A N/A MISG        N/A
JACKSON        FAIR      36  34  92 CALM      30.36S
DYERSBURG      FAIR      38  35  89 CALM      30.39R
SOMERVILLE     CLEAR     36  34  93 CALM      30.35R
COVINGTON      PTCLDY    39  34  81 NW5       30.38R
UNION CITY     CLEAR     37  34  87 CALM      30.37S
BOLIVAR        CLEAR     36  34  93 CALM      30.35R
PARIS          CLEAR     36  32  87 N5        30.36S WCI  32
HUNTINGDON     CLEAR     36  34  93 CALM      30.35S
LEXINGTON      CLEAR     34  32  93 N3        30.35R
SELMER         CLEAR     34  32  93 N6        30.34R WCI  29
SAVANNAH       CLEAR     34  34 100 CALM      30.34R
$$

TNZ008-025-027-028-033-062-065-066-201000-
NORTH MIDDLE TENNESSEE

CITY           SKY/WX    TMP DP  RH WIND       PRES   REMARKS
NASHVILLE      FAIR      38  32  79 CALM      30.36S
PORTLAND       CLEAR     34  32  93 CALM      30.36R
CLARKSVILLE    FAIR      35  30  82 N6        30.36S WCI  30
SMYRNA         FAIR      35  33  92 CALM      30.37S
COOKEVILLE     CLEAR     28  28 100 CALM      30.33S
LIVINGSTON     SUNNY     36  30  80 NE5       30.33R WCI  32
GALLATIN       CLEAR     34  32  93 CALM      30.39S
CROSSVILLE     FAIR      33  27  78 E5        30.32R WCI  29
ROCKWOOD       SUNNY     36  28  75 E7        30.32R WCI  30
$$

TNZ061-075-076-078-094-096-097-201000-
SOUTH MIDDLE TENNESSEE

CITY           SKY/WX    TMP DP  RH WIND       PRES   REMARKS
LEWISBURG      SUNNY     32  30  93 CALM      30.34R
FAYETTEVILLE   CLEAR     39  32  75 NE10      30.29S WCI  32
TULLAHOMA      CLEAR     37  30  75 NE6       30.31S WCI  33
WINCHESTER     CLEAR     39  28  65 N7        30.30S WCI  34
MCMINNVILLE    CLEAR     32  28  86 NE6       30.33S WCI  26
COLUMBIA       CLEAR     34  34 100 CALM      30.33S
SHELBYVILLE    CLEAR     32  30  93 CALM      30.33S
$$

TNZ017-018-042-046-047-201000-
NORTHEAST TENNESSEE

CITY           SKY/WX    TMP DP  RH WIND       PRES   REMARKS
TRI CITIES     FAIR      30  29  96 CALM      30.33R
ELIZABETHTON   FAIR      30  28  93 CALM      30.34R
$$

TNZ012-013-036-069-073-074-201000-
CENTRAL EAST TENNESSEE

CITY           SKY/WX    TMP DP  RH WIND       PRES   REMARKS
KNOXVILLE      FAIR      38  30  73 N8        30.33R WCI  32
OAK RIDGE      FAIR      35  33  92 CALM      30.37R
DOWNTOWN KNOXV CLEAR     34  32  93 CALM      30.36R
GATLINBURG     CLEAR     32  30  93 CALM      30.35R
MORRISTOWN     PTCLDY    34  30  86 CALM      30.34R
JACKSBORO      CLEAR     30  30 100 CALM      30.39R
$$

TNZ083-085-099-201000-
SOUTHEAST TENNESSEE

CITY           SKY/WX    TMP DP  RH WIND       PRES   REMARKS
CHATTANOOGA    FAIR      42  31  64 N14       30.31S
DAYTON         SUNNY     39  34  81 N5        30.33R
$$

SKY/WX REPORTED AS FAIR MEANS FEW OR NO CLOUDS BELOW
12 THOUSAND FEET.




USA.gov is the U.S. government's official web portal to all federal, state and local government web resources and services.